Location: Gleizolles
(44.4833°N, 6.7667°E)
Time: 11:39:06
(UTC+00:00)

Transit 2A - Pass Details

Date: 28 June 2024
Orbit: 591 x 960 km, 66.7° (Epoch: 17 July)

Event Time Altitude Azimuth Distance (km) Brightness Sun altitude
Rises 22:12:45 0° 325° (NW) 3,561 10.9 -19.6°
Reaches altitude 10° 22:15:16 10° 322° (NW) 2,648 9.9 -19.8°
Maximum altitude 22:21:26 64° 243° (WSW) 1,056 6.6 -20.2°
Enters shadow 22:24:03 36° 176° (S) 1,481 6.9 -20.3°
